User: anonymous   Login
Location: Unspecified
(0.0000°N, 0.0000°E)
Time: 00:50:44
(UTC+00:00)
Language:

STARLINK-31037 - Orbit

View from above orbital plane
View from above orbital plane
View from above satellite
View from above satellite

Ground track
Ground track

The orbit is defined by the following mean orbital elements,

1 58536U          26145.51448573 +.00000000 +00000-0 -40936-4 0 00002
2 58536  53.1615  65.4889 0001231  83.5539 276.5604 15.34397246    04
Epoch (UTC): 25 May 2026 12:20:51
Eccentricity: 0.0001231
inclination: 53.1615°
perigee height: 462 km
apogee height: 464 km
right ascension of ascending node: 65.4889°
argument of perigee: 83.5539°
revolutions per day: 15.34397246
mean anomaly at epoch: 276.5604°

The dashed part of the orbit path shows where the satellite is in the earth's shadow,  

DLR